カタログに戻る

FENGYUN 1C DEB

運用中SSO
NORAD 31091·DEBRIS·🇨🇳 China

打ち上げ May 10, 1999 から Taiyuan Satellite Launch Center

Loading…

次のパス (今後24時間)

TLE

最新Source: Space-Track

元期: Sep 14, 2026, 20:40 UTC

1 31091U 99025BGM 26257.86171110  .00000391  00000-0  48555-3 0  9999
2 31091  99.2527 222.2960 0288960 347.4922  11.9150 13.54483878653773

AllMySatでFENGYUN 1C DEBをリアルタイム追跡

Download on the App Store